Flag for Spain Weather past 2 weeks in Las Palmas, Canary Islands, Spain

Now
63 °F

Passing clouds.


Feels Like: 63 °F
Forecast: 62 / 66 °F
Wind: 14 mph from North

Location: Las Palmas De Gran Canaria / Gando

Current Time: Feb 1, 2015 at 5:01:49 AM

Latest Report: Feb 1, 2015 at 4:30 AM


Visibility: N/A

Pressure: 30.12 "Hg

Humidity: 64%

Dew point: 50 °F

Location of Las PalmasLocation

Historic Weather in Las Palmas — Graph

°F

Las Palmas temperature yesterday

Maximum temperature yesterday: 68 °F (at 1:00 PM)
Minimum temperature yesterday: 61 °F (at 1:30 AM)
Average temperature yesterday: 63 °F

Past Weeks' High & Low Weather Summary

 TemperatureHumidityPressure
High70 °F (Jan 19, 12:30 PM)94% (Jan 20, 10:30 PM)30.42 "Hg (Jan 20, 10:30 PM)
Low59 °F (Jan 18, 5:30 AM)40% (Jan 21, 10:30 AM)30.09 "Hg (Jan 31, 4:30 PM)
Average63 °F65%30.25 "Hg
* Reported Jan 17 4:00 AM — Feb 1 4:00 AM, Las Palmas, Weather by CustomWeather, © 2014

Note: Actual official high and low records may vary slightly from our data, if they occured in-between our weather recording intervals... More about our weather records

Advertising

Las Palmas weather history for previous 24 hours

 ConditionsComfort  
Time TempWeatherWind HumidityBarometerVisibility
4:00 AM
Feb 1
63 °FPassing clouds.16 mph68%30.12 "HgN/A
3:30 AM63 °FPassing clouds.15 mph73%30.12 "HgN/A
2:30 AM63 °FPassing clouds.15 mph73%30.15 "HgN/A
2:00 AM63 °FPassing clouds.14 mph68%30.15 "HgN/A
1:30 AM63 °FPassing clouds.15 mph68%30.15 "HgN/A
1:00 AM63 °FPassing clouds.13 mph68%30.18 "HgN/A
12:30 AM63 °FPassing clouds.14 mph68%30.18 "HgN/A
12:00 AM63 °FPassing clouds.18 mph68%30.18 "HgN/A
11:30 PM
Jan 31
63 °FPassing clouds.16 mph73%30.18 "HgN/A
11:00 PM63 °FPassing clouds.15 mph73%30.18 "HgN/A
10:30 PM63 °FPassing clouds.15 mph73%30.18 "HgN/A
10:00 PM63 °FPassing clouds.15 mph73%30.18 "HgN/A
9:00 PM63 °FPassing clouds.15 mph68%30.15 "HgN/A
8:30 PM63 °FPassing clouds.17 mph68%30.12 "HgN/A
8:00 PM63 °FPassing clouds.18 mph68%30.12 "HgN/A
7:30 PM63 °FPassing clouds.18 mph73%30.12 "HgN/A
7:00 PM63 °FPassing clouds.20 mph77%30.12 "HgN/A
6:30 PM63 °FBroken clouds.22 mph83%30.12 "Hg6 mi
6:00 PM63 °FBroken clouds.20 mph77%30.12 "Hg6 mi
5:30 PM63 °FBroken clouds.22 mph83%30.12 "Hg6 mi
5:00 PM64 °FBroken clouds.21 mph73%30.12 "Hg6 mi
4:30 PM66 °FDrizzle. Partly sunny.23 mph68%30.09 "Hg6 mi
4:00 PM64 °FPartly sunny.22 mph73%30.12 "HgN/A
3:30 PM68 °FPartly sunny.23 mph60%30.12 "HgN/A
3:00 PM68 °FPartly sunny.24 mph60%30.12 "HgN/A
2:30 PM66 °FPartly sunny.24 mph68%30.12 "HgN/A
2:00 PM68 °FPartly sunny.28 mph64%30.12 "HgN/A
1:30 PM66 °FScattered clouds.31 mph68%30.12 "HgN/A
1:00 PM68 °FPartly sunny.28 mph64%30.15 "HgN/A
12:30 PM66 °FPartly sunny.26 mph73%30.15 "HgN/A
12:00 PM66 °FPartly sunny.25 mph68%30.18 "HgN/A
11:30 AM64 °FPartly sunny.20 mph73%30.21 "HgN/A
11:00 AM64 °FPartly sunny.16 mph73%30.21 "HgN/A
10:30 AM63 °FPartly sunny.17 mph83%30.21 "HgN/A
10:00 AM63 °FDrizzle. Partly sunny.20 mph83%30.18 "HgN/A
9:30 AM61 °FPartly sunny.22 mph88%30.18 "HgN/A
9:00 AM63 °FPartly sunny.18 mph77%30.18 "HgN/A
8:30 AM61 °FPartly sunny.18 mph83%30.18 "HgN/A
8:00 AM63 °FDrizzle. Partly sunny.12 mph73%30.18 "HgN/A
7:30 AM61 °FPassing clouds.16 mph83%30.18 "HgN/A
7:00 AM61 °FPassing clouds.18 mph83%30.15 "HgN/A
6:30 AM61 °FPassing clouds.16 mph83%30.15 "HgN/A
6:00 AM61 °FPassing clouds.16 mph83%30.15 "HgN/A
5:30 AM61 °FPassing clouds.16 mph83%30.15 "HgN/A
5:00 AM61 °FPassing clouds.17 mph83%30.15 "HgN/A
Weather by CustomWeather, © 2014

See weather overviewHow to use our weather pages